Location: Hodgson Observatory
(42.9992°N, 96.7577°W)
Time: 21:05:58
(UTC-05:00)

Daily predictions for brighter satellites

Satellite Brightness Start Highest point End
(mag) Time Altitude Azimuth Time Altitude Azimuth Time Altitude Azimuth
YAOGAN 1 2.5 19:05:15 10° SSE 19:09:32 69° ENE 19:13:52 10° N
Meteor 2-15 4.4 19:04:13 10° N 19:10:21 78° E 19:16:27 10° SSE
ALOS 3.1 19:07:04 10° SE 19:11:08 30° ENE 19:15:11 10° N
CORIOLIS 4.4 19:07:05 10° S 19:12:27 80° WSW 19:17:54 10° NNW
GP-B 3.4 19:09:22 10° NNE 19:13:38 43° E 19:17:52 10° SSE
Abrixas rocket 2.2 19:11:52 10° WSW 19:15:09 89° NNW 19:18:27 10° ENE
Cosmos 1703 4.1 19:11:46 10° NNE 19:15:13 28° ENE 19:18:38 10° SE
FENGYUN 3A 4.2 19:10:58 10° SE 19:15:51 36° ENE 19:20:45 10° N
CZ-4 R/B 1.9 19:12:44 10° S 19:16:57 68° WSW 19:21:08 10° NNW
Landsat 4 4.1 19:14:06 10° N 19:17:49 69° WNW 19:21:30 10° SSW
MOS 1 4.3 19:13:45 10° SSE 19:19:21 69° ENE 19:25:01 10° N
CZ-2C R/B 3.9 19:14:58 10° N 19:19:32 75° WNW 19:23:59 10° SSW
Meteor 2-14 Rocket 4.4 19:15:25 10° S 19:21:28 73° E 19:27:33 10° NNE
Meteor 2-16 Rocket 4.4 19:17:58 10° S 19:23:58 65° E 19:30:02 10° NNE
Cosmos 1400 Rocket 3.1 19:20:35 10° N 19:24:30 44° ENE 19:28:19 10° SSE
Cosmos-2242 3.2 19:21:55 10° SSW 19:26:11 77° W 19:30:27 10° N
Tiangong 1 2.7 19:24:14 10° W 19:26:31 24° SSW 19:28:48 10° SSE
Cosmos 2219 Rocket 3.9 19:23:38 10° NNE 19:26:39 15° NE 19:29:17 11° ENE
Cosmos 1624 Rocket 4.0 19:23:50 10° NNW 19:29:05 90° E 19:34:19 10° SSE
Cosmos 1371 Rocket 4.4 19:26:02 10° NNW 19:31:23 73° WSW 19:36:43 10° S
SKYMED 2 3.5 19:27:14 10° NNE 19:31:35 70° ESE 19:35:54 10° S
Thor Agena Rocket 4.3 19:27:34 10° NE 19:32:01 29° E 19:36:24 10° SSE
Meteor 1-28 Rocket 4.0 19:28:22 10° N 19:32:07 56° WNW 19:35:48 10° SSW
ERS-2 3.6 19:29:07 10° S 19:32:37 42° W 19:36:10 10° NNW
USA 234 4.4 19:28:13 10° ENE 19:33:38 29° NNE 19:39:02 10° NW
GRACE-2 4.4 19:33:49 10° SSE 19:36:09 30° E 19:38:29 10° NNE
SL-16 R/B 2.6 19:30:56 10° NNW 19:36:36 71° WSW 19:42:13 10° SSE
GRACE-1 4.3 19:35:35 10° SSE 19:37:58 33° E 19:40:22 10° NNE
Cosmos 1743 Rocket 3.5 19:33:55 10° N 19:38:17 71° E 19:42:40 10° SSE
Cosmos 1908 4.1 19:35:29 10° SSE 19:38:50 28° E 19:42:13 10° NNE
Cosmos 2151 3.0 19:37:01 10° N 19:41:16 58° E 19:45:28 10° SSE
Iridium 4 Rocket 4.3 19:36:35 10° SE 19:41:25 34° E 19:46:34 10° NNE
Cosmos 1842 Rocket 3.5 19:41:56 10° S 19:46:23 71° E 19:50:50 10° NNE
H-2A R/B 3.5 19:43:28 10° SE 19:46:53 31° ENE 19:50:20 10° N
Resurs 01 Rocket 3.3 19:49:59 15° ENE 19:49:59 15° ENE 19:52:19 10° NNE
Cosmos 2237 Rocket 3.9 19:51:50 10° NNE 19:54:43 14° NE 19:55:40 13° NE
ISS -1.1 19:53:29 10° W 19:55:47 18° SW 19:58:04 10° S
FREGAT/IRIS 3.0 19:56:03 26° SE 19:57:14 39° ENE 20:00:04 10° N
Cosmos 2221 2.9 19:53:54 10° SSE 19:57:56 40° E 20:02:00 10° NNE
Cosmos 2366 rocket 4.3 19:52:46 10° SSW 19:59:00 72° W 20:05:12 10° N
Cosmos 1500 Rocket 3.5 19:56:18 10° N 20:00:41 86° W 20:05:00 10° S
Cosmos 1315 Rocket 2.7 20:01:26 10° N 20:05:29 67° E 20:09:33 10° SSE
SPOT 3 Rocket 4.3 20:01:49 10° S 20:06:54 56° W 20:12:02 10° NNW
Cosmos 921 Rocket 3.0 20:03:36 10° NNW 20:08:03 64° ENE 20:11:50 14° SSE
Cosmos 158 Rocket 4.2 20:03:55 10° S 20:08:37 42° ESE 20:13:27 10° NNE
BREEZE-M DEB (TANK) 3.2 20:07:04 10° W 20:08:45 21° SW 20:09:32 17° S
HJ-1C 3.9 20:10:02 39° ENE 20:10:02 39° ENE 20:13:05 10° N
COSMOS 2428 3.0 20:08:26 10° NNW 20:13:53 45° ENE 20:16:20 29° ESE
BREEZE-M DEB (TANK) 2.2 20:13:11 10° W 20:15:07 46° NW 20:15:07 46° NW
Cosmos 2058 3.6 20:11:30 10° NNW 20:15:37 57° W 20:19:41 10° S
Cosmos 2333 Rocket 3.2 20:12:28 10° N 20:17:19 28° NE 20:18:02 27° ENE
COSMO-SKYMED 1 4.2 20:15:36 10° N 20:19:34 35° WNW 20:23:30 10° SW
RESURS DK-1 2.3 20:16:21 10° NNW 20:20:30 83° WSW 20:23:04 22° SSE
Cosmos 1626 4.0 20:17:21 10° NNW 20:20:44 32° W 20:24:05 10° SSW
Cosmos 2360 Rocket 2.3 20:15:12 10° NNW 20:20:52 76° WSW 20:26:31 10° SSE
Cosmos 1833 4.3 20:15:44 10° SSW 20:21:26 79° WNW 20:27:07 10° NNE
Cosmos 2098 Rocket 3.2 20:17:45 10° SSE 20:21:46 53° E 20:26:54 10° NNE
FengYun 1-2 T 4.1 20:18:26 10° SSE 20:23:56 83° ENE 20:29:26 10° NNW
Cosmos 2219 3.6 20:21:08 10° S 20:26:27 40° ESE 20:27:40 36° ENE
Cosmos 468 4.3 20:21:22 10° S 20:26:33 73° ESE 20:31:46 10° NNE
Cosmos 2322 Rocket 4.3 20:22:01 10° NW 20:26:41 28° WSW 20:31:20 10° SSW
MOS 1-B Rocket 4.0 20:25:31 32° ESE 20:27:46 48° ENE 20:33:29 10° N
SL-24 R/B - RUBIN 2 3.7 20:23:47 10° NW 20:28:41 78° WSW 20:30:52 30° SSE
Lacrosse 5 rocket 3.8 20:28:11 10° WNW 20:31:00 16° NNW 20:33:24 11° NNE
SJ-6B 2.5 20:30:52 50° SSE 20:31:46 84° ENE 20:35:31 10° NNW
SL-8 R/B 3.6 20:28:31 10° WSW 20:33:20 79° SSE 20:34:26 53° ENE
Cosmos 1452 Rocket 3.9 20:29:15 10° NNW 20:34:27 64° WSW 20:39:38 10° S
BREEZE-M DEB (TANK) 4.3 20:30:53 10° WNW 20:35:47 84° SSW 20:47:49 23° SE
Sich 1 3.8 20:32:05 10° N 20:35:07 37° NNE 20:35:07 37° NNE
Cosmos 1821 Rocket 3.8 20:30:28 10° S 20:36:34 76° E 20:42:48 10° N
Cosmos 1000 Rocket 4.4 20:31:08 10° N 20:37:26 90° SW 20:43:37 10° S
Cosmos 1805 Rocket 3.4 20:34:25 10° N 20:38:48 79° E 20:39:44 54° SSE
USA 267 3.2 20:37:01 30° ENE 20:40:26 68° SE 20:46:56 10° SW
DELTA 2 R/B (1) 3.9 20:40:05 10° W 20:45:33 56° S 20:46:42 47° SSE
Cosmos 2239 Rocket 4.3 20:39:26 10° S 20:45:35 88° E 20:51:46 10° N
Cosmos 1934 Rocket 3.9 20:39:35 10° S 20:45:52 68° E 20:52:12 10° NNE
Atlas Centaur 2 3.7 20:41:51 10° SW 20:46:03 23° S 20:47:13 22° SSE
Cosmos 2322 4.2 20:40:47 10° NNW 20:46:26 59° WSW 20:51:21 13° S
Cosmos 1666 Rocket 4.3 20:42:52 10° N 20:45:46 38° NNE 20:45:46 38° NNE
ALOS 4.2 20:44:27 10° SSW 20:48:30 29° W 20:52:36 10° NW
Spot 2 Rocket 3.8 20:51:35 48° NE 20:51:35 48° NE 20:55:42 10° N
Abrixas rocket 4.1 20:49:02 10° WNW 20:51:14 28° NW 20:51:14 28° NW
Gbstr 26 Del rocket 3.9 20:47:06 10° NW 20:52:17 58° NNE 20:53:04 54° ENE
Cosmos 1633 Rocket 4.4 20:52:57 10° N 20:55:16 30° N 20:55:16 30° N
CZ-4C R/B 2.5 20:53:56 10° SSW 20:57:35 45° S 20:57:35 45° S
Cosmos 2123 Rocket 3.8 20:57:23 10° N 21:03:39 83° E 21:05:32 48° SSE
Cosmos 1605 Rocket 4.3 21:12:13 50° NNE 21:12:13 50° NNE 21:16:41 10° NNE
BREEZE-M DEB (TANK) 3.4 20:56:16 10° WNW 21:11:22 82° NNE 21:11:53 74° E
Cosmos 2219 Rocket 2.2 21:05:56 10° NNW 21:11:01 71° N 21:11:01 71° N
USA 234 3.4 21:15:23 53° NE 21:15:46 54° NNE 21:22:08 10° NW
Cosmos 1048 Rocket 4.5 21:11:41 10° SW 21:16:43 57° WNW 21:19:10 29° N
Envisat 3.6 21:26:30 51° NW 21:26:30 51° NW 21:30:24 10° NNW
Resurs 01 Rocket 3.2 21:27:35 32° NW 21:27:35 32° NW 21:30:06 10° NNW
Cosmos 2237 Rocket 3.3 21:34:08 10° NNW 21:37:31 37° NNW 21:37:31 37° NNW
SL-16 R/B 4.1 21:42:45 10° N 21:44:36 20° N 21:44:36 20° N
COSMOS 2428 4.4 21:53:10 10° NW 21:57:54 28° WSW 21:58:23 27° WSW
Cosmos 2333 Rocket 3.5 21:56:19 10° NW 22:00:03 37° WNW 22:00:03 37° WNW
USA 267 4.3 22:24:25 41° NW 22:24:25 41° NW 22:29:22 10° W
CZ-3A R/B 4.1 22:14:02 10° NW 22:27:05 68° NW 22:27:05 68° NW
